Time,TemperatureF,DewpointF,PressureIn,WindDirection,WindDirectionDegrees,WindSpeedMPH,WindSpeedGustMPH,Humidity,HourlyPrecipIn,Conditions,Clouds,dailyrainin,SoftwareType,DateUTC
2013-05-22 00:03:00,57.5,16.7,29.61,ESE,106,9.0,22.0,20,0.00,,,0.00,Wunderground v.1.15,2013-05-22 07:03:00,
2013-05-22 00:08:00,57.5,16.7,29.61,ESE,109,20.0,24.0,20,0.00,,,0.00,Wunderground v.1.15,2013-05-22 07:08:00,
2013-05-22 00:14:00,57.3,16.5,29.61,East,97,11.0,17.0,20,0.00,,,0.00,Wunderground v.1.15,2013-05-22 07:14:00,
2013-05-22 00:20:00,57.0,15.1,29.59,ESE,119,17.0,17.0,19,0.00,,,0.00,Wunderground v.1.15,2013-05-22 07:20:00,
2013-05-22 00:25:00,57.0,16.3,29.59,ESE,123,18.0,18.0,20,0.00,,,0.00,Wunderground v.1.15,2013-05-22 07:25:00,
2013-05-22 00:30:00,56.9,17.3,29.59,SE,133,11.0,13.0,21,0.00,,,0.00,Wunderground v.1.15,2013-05-22 07:30:00,
2013-05-22 00:36:00,56.7,17.1,29.59,SSE,151,11.0,16.0,21,0.00,,,0.00,Wunderground v.1.15,2013-05-22 07:36:00,
2013-05-22 00:41:00,56.5,17.0,29.59,East,95,13.0,13.0,21,0.00,,,0.00,Wunderground v.1.15,2013-05-22 07:41:00,
2013-05-22 00:46:00,56.5,17.0,29.60,ESE,120,6.0,21.0,21,0.00,,,0.00,Wunderground v.1.15,2013-05-22 07:46:00,
2013-05-22 00:52:00,56.6,15.9,29.60,ESE,116,14.0,15.0,20,0.00,,,0.00,Wunderground v.1.15,2013-05-22 07:52:00,
2013-05-22 00:57:00,56.5,15.8,29.60,SSE,161,9.0,17.0,20,0.00,,,0.00,Wunderground v.1.15,2013-05-22 07:57:00,
2013-05-22 01:03:00,56.3,17.9,29.59,SE,145,14.0,20.0,22,0.00,,,0.00,Wunderground v.1.15,2013-05-22 08:03:00,
2013-05-22 01:08:00,56.3,17.9,29.59,ESE,121,14.0,20.0,22,0.00,,,0.00,Wunderground v.1.15,2013-05-22 08:08:00,
2013-05-22 01:14:00,56.2,17.8,29.59,ESE,104,9.0,13.0,22,0.00,,,0.00,Wunderground v.1.15,2013-05-22 08:14:00,
2013-05-22 01:19:00,56.0,18.7,29.60,ESE,106,10.0,14.0,23,0.00,,,0.00,Wunderground v.1.15,2013-05-22 08:19:00,
2013-05-22 01:25:00,55.7,18.4,29.60,SE,128,8.0,20.0,23,0.00,,,0.00,Wunderground v.1.15,2013-05-22 08:25:00,
2013-05-22 01:30:00,55.6,18.3,29.60,ESE,123,15.0,15.0,23,0.00,,,0.00,Wunderground v.1.15,2013-05-22 08:30:00,
2013-05-22 01:36:00,55.4,18.2,29.60,ESE,117,13.0,15.0,23,0.00,,,0.00,Wunderground v.1.15,2013-05-22 08:36:00,
2013-05-22 01:41:00,55.3,18.1,29.60,East,90,11.0,15.0,23,0.00,,,0.00,Wunderground v.1.15,2013-05-22 08:41:00,
2013-05-22 01:47:00,55.3,18.1,29.60,ESE,120,7.0,15.0,23,0.00,,,0.00,Wunderground v.1.15,2013-05-22 08:47:00,
2013-05-22 01:52:00,55.1,18.9,29.60,ESE,119,9.0,11.0,24,0.00,,,0.00,Wunderground v.1.15,2013-05-22 08:52:00,
2013-05-22 01:58:00,55.0,18.8,29.60,SE,124,9.0,13.0,24,0.00,,,0.00,Wunderground v.1.15,2013-05-22 08:58:00,
2013-05-22 02:04:00,54.7,18.6,29.60,SE,134,0.0,10.0,24,0.00,,,0.00,Wunderground v.1.15,2013-05-22 09:04:00,
2013-05-22 02:09:00,54.5,17.4,29.60,ESE,119,13.0,18.0,23,0.00,,,0.00,Wunderground v.1.15,2013-05-22 09:09:00,
2013-05-22 02:14:00,54.5,17.4,29.60,East,96,4.0,15.0,23,0.00,,,0.00,Wunderground v.1.15,2013-05-22 09:14:00,
2013-05-22 02:19:00,54.4,17.3,29.59,ESE,112,11.0,15.0,23,0.00,,,0.00,Wunderground v.1.15,2013-05-22 09:19:00,
2013-05-22 02:24:00,54.2,17.1,29.59,ESE,120,9.0,13.0,23,0.00,,,0.00,Wunderground v.1.15,2013-05-22 09:24:00,
2013-05-22 02:29:00,54.1,16.0,29.59,ESE,113,0.0,15.0,22,0.00,,,0.00,Wunderground v.1.15,2013-05-22 09:29:00,
2013-05-22 02:34:00,54.1,17.1,29.60,SE,143,8.0,13.0,23,0.00,,,0.00,Wunderground v.1.15,2013-05-22 09:34:00,
2013-05-22 02:39:00,53.9,15.9,29.60,West,281,1.0,13.0,22,0.00,,,0.00,Wunderground v.1.15,2013-05-22 09:39:00,
2013-05-22 02:44:00,53.9,15.9,29.60,NE,40,0.0,7.0,22,0.00,,,0.00,Wunderground v.1.15,2013-05-22 09:44:00,
2013-05-22 02:49:00,53.9,15.9,29.60,NNE,23,0.0,7.0,22,0.00,,,0.00,Wunderground v.1.15,2013-05-22 09:49:00,
2013-05-22 02:54:00,53.5,15.5,29.60,North,352,0.0,1.0,22,0.00,,,0.00,Wunderground v.1.15,2013-05-22 09:54:00,
2013-05-22 02:59:00,53.1,16.2,29.60,NNW,330,0.0,2.0,23,0.00,,,0.00,Wunderground v.1.15,2013-05-22 09:59:00,
2013-05-22 03:04:00,52.6,16.8,29.60,NNW,330,0.0,1.0,24,0.00,,,0.00,Wunderground v.1.15,2013-05-22 10:04:00,
2013-05-22 03:09:00,52.2,16.4,29.60,WNW,299,0.0,1.0,24,0.00,,,0.00,Wunderground v.1.15,2013-05-22 10:09:00,
2013-05-22 03:14:00,51.6,15.9,29.61,WNW,299,0.0,1.0,24,0.00,,,0.00,Wunderground v.1.15,2013-05-22 10:14:00,
2013-05-22 03:19:00,51.1,16.4,29.61,WNW,291,0.0,1.0,25,0.00,,,0.00,Wunderground v.1.15,2013-05-22 10:19:00,
2013-05-22 03:24:00,50.5,15.0,29.61,SSE,160,0.0,4.0,24,0.00,,,0.00,Wunderground v.1.15,2013-05-22 10:24:00,
2013-05-22 03:29:00,50.2,13.8,29.61,SSE,151,7.0,8.0,23,0.00,,,0.00,Wunderground v.1.15,2013-05-22 10:29:00,
2013-05-22 03:34:00,50.4,9.6,29.61,SE,126,1.0,11.0,19,0.00,,,0.00,Wunderground v.1.15,2013-05-22 10:34:00,
2013-05-22 03:39:00,50.7,9.9,29.61,SSE,165,4.0,13.0,19,0.00,,,0.00,Wunderground v.1.15,2013-05-22 10:39:00,
2013-05-22 03:45:00,51.0,11.3,29.61,SW,233,0.0,6.0,20,0.00,,,0.00,Wunderground v.1.15,2013-05-22 10:45:00,
2013-05-22 03:50:00,51.3,7.9,29.61,WNW,287,0.0,2.0,17,0.00,,,0.00,Wunderground v.1.15,2013-05-22 10:50:00,
2013-05-22 03:55:00,51.4,3.7,29.61,WNW,287,0.0,2.0,14,0.00,,,0.00,Wunderground v.1.15,2013-05-22 10:55:00,
2013-05-22 04:00:00,51.9,5.6,29.61,NW,311,0.0,0.0,15,0.00,,,0.00,Wunderground v.1.15,2013-05-22 11:00:00,
2013-05-22 04:05:00,51.7,6.9,29.61,NW,311,0.0,0.0,16,0.00,,,0.00,Wunderground v.1.15,2013-05-22 11:05:00,
2013-05-22 04:10:00,51.6,0.5,29.61,NNE,16,0.0,2.0,12,0.00,,,0.00,Wunderground v.1.15,2013-05-22 11:10:00,
2013-05-22 04:15:00,51.7,5.4,29.60,NNW,333,1.0,4.0,15,0.00,,,0.00,Wunderground v.1.15,2013-05-22 11:15:00,
2013-05-22 04:20:00,51.4,5.2,29.60,NNW,333,0.0,0.0,15,0.00,,,0.00,Wunderground v.1.15,2013-05-22 11:20:00,
2013-05-22 04:25:00,51.0,4.9,29.60,NNW,333,1.0,1.0,15,0.00,,,0.00,Wunderground v.1.15,2013-05-22 11:25:00,
2013-05-22 04:30:00,50.5,4.5,29.60,NNW,343,7.0,8.0,15,0.00,,,0.00,Wunderground v.1.15,2013-05-22 11:30:00,
2013-05-22 04:35:00,51.0,1.8,29.60,WNW,292,1.0,8.0,13,0.00,,,0.00,Wunderground v.1.15,2013-05-22 11:35:00,
2013-05-22 04:40:00,51.9,0.8,29.60,NW,312,7.0,8.0,12,0.00,,,0.00,Wunderground v.1.15,2013-05-22 11:40:00,
2013-05-22 04:45:00,52.0,2.6,29.60,NW,305,0.0,8.0,13,0.00,,,0.00,Wunderground v.1.15,2013-05-22 11:45:00,
2013-05-22 04:50:00,51.6,3.9,29.60,SW,226,0.0,2.0,14,0.00,,,0.00,Wunderground v.1.15,2013-05-22 11:50:00,
2013-05-22 04:55:00,51.1,5.0,29.60,SW,226,0.0,2.0,15,0.00,,,0.00,Wunderground v.1.15,2013-05-22 11:55:00,
2013-05-22 05:00:00,50.7,3.1,29.60,East,90,0.0,2.0,14,0.00,,,0.00,Wunderground v.1.15,2013-05-22 12:00:00,
2013-05-22 05:05:00,50.7,3.1,29.60,WNW,282,0.0,2.0,14,0.00,,,0.00,Wunderground v.1.15,2013-05-22 12:05:00,
2013-05-22 05:10:00,50.5,5.9,29.60,WSW,240,0.0,0.0,16,0.00,,,0.00,Wunderground v.1.15,2013-05-22 12:10:00,
2013-05-22 05:15:00,50.5,5.9,29.61,NE,51,0.0,2.0,16,0.00,,,0.00,Wunderground v.1.15,2013-05-22 12:15:00,
2013-05-22 05:20:00,50.5,7.2,29.61,ENE,59,0.0,6.0,17,0.00,,,0.00,Wunderground v.1.15,2013-05-22 12:20:00,
2013-05-22 05:26:00,50.4,8.4,29.61,ENE,64,4.0,7.0,18,0.00,,,0.00,Wunderground v.1.15,2013-05-22 12:26:00,
2013-05-22 05:31:00,50.4,5.8,29.60,NNE,25,2.0,6.0,16,0.00,,,0.00,Wunderground v.1.15,2013-05-22 12:31:00,
2013-05-22 05:36:00,50.5,4.5,29.60,NNE,16,1.0,8.0,15,0.00,,,0.00,Wunderground v.1.15,2013-05-22 12:36:00,
2013-05-22 05:41:00,50.8,6.1,29.60,NNE,25,1.0,2.0,16,0.00,,,0.00,Wunderground v.1.15,2013-05-22 12:41:00,
2013-05-22 05:46:00,50.7,7.4,29.60,NW,320,1.0,4.0,17,0.00,,,0.00,Wunderground v.1.15,2013-05-22 12:46:00,
2013-05-22 05:51:00,50.4,7.1,29.60,NW,322,0.0,1.0,17,0.00,,,0.00,Wunderground v.1.15,2013-05-22 12:51:00,
2013-05-22 05:56:00,49.9,10.4,29.60,NW,322,0.0,1.0,20,0.00,,,0.00,Wunderground v.1.15,2013-05-22 12:56:00,
2013-05-22 06:01:00,49.4,8.8,29.61,ESE,106,2.0,4.0,19,0.00,,,0.00,Wunderground v.1.15,2013-05-22 13:01:00,
2013-05-22 06:06:00,48.8,8.3,29.61,SSE,157,0.0,4.0,19,0.00,,,0.00,Wunderground v.1.15,2013-05-22 13:06:00,
2013-05-22 06:11:00,48.3,7.9,29.61,ESE,114,2.0,6.0,19,0.00,,,0.00,Wunderground v.1.15,2013-05-22 13:11:00,
2013-05-22 06:16:00,48.9,3.2,29.63,NNW,333,1.0,6.0,15,0.00,,,0.00,Wunderground v.1.15,2013-05-22 13:16:00,
2013-05-22 06:21:00,49.2,6.2,29.63,North,353,1.0,1.0,17,0.00,,,0.00,Wunderground v.1.15,2013-05-22 13:21:00,
2013-05-22 06:26:00,50.5,8.5,29.63,NE,34,2.0,6.0,18,0.00,,,0.00,Wunderground v.1.15,2013-05-22 13:26:00,
2013-05-22 06:31:00,51.0,11.3,29.63,NE,34,0.0,2.0,20,0.00,,,0.00,Wunderground v.1.15,2013-05-22 13:31:00,
2013-05-22 06:36:00,51.4,12.7,29.63,NE,34,0.0,2.0,21,0.00,,,0.00,Wunderground v.1.15,2013-05-22 13:36:00,
2013-05-22 06:41:00,51.7,14.0,29.63,NE,34,4.0,4.0,22,0.00,,,0.00,Wunderground v.1.15,2013-05-22 13:41:00,
2013-05-22 06:46:00,50.8,18.0,29.63,NNE,17,1.0,8.0,27,0.00,,,0.00,Wunderground v.1.15,2013-05-22 13:46:00,
2013-05-22 06:51:00,48.8,23.6,29.63,NNE,30,10.0,10.0,37,0.00,,,0.00,Wunderground v.1.15,2013-05-22 13:51:00,
2013-05-22 06:56:00,47.0,26.2,29.63,NE,42,1.0,10.0,44,0.00,,,0.00,Wunderground v.1.15,2013-05-22 13:56:00,
2013-05-22 07:01:00,46.5,22.8,29.65,North,10,7.0,10.0,39,0.00,,,0.00,Wunderground v.1.15,2013-05-22 14:01:00,
2013-05-22 07:06:00,46.4,22.8,29.65,NNE,17,10.0,17.0,39,0.00,,,0.00,Wunderground v.1.15,2013-05-22 14:06:00,
2013-05-22 07:11:00,45.1,23.3,29.65,NE,40,10.0,17.0,42,0.00,,,0.00,Wunderground v.1.15,2013-05-22 14:11:00,
2013-05-22 07:16:00,44.1,23.6,29.71,NNE,13,11.0,18.0,44,0.00,,,0.00,Wunderground v.1.15,2013-05-22 14:16:00,
2013-05-22 07:21:00,43.5,23.0,29.71,NNE,32,13.0,17.0,44,0.00,,,0.00,Wunderground v.1.15,2013-05-22 14:21:00,
2013-05-22 07:26:00,43.2,22.7,29.71,NNE,32,13.0,18.0,44,0.00,,,0.00,Wunderground v.1.15,2013-05-22 14:26:00,
2013-05-22 07:31:00,42.9,22.5,29.73,NNE,31,13.0,17.0,44,0.00,,,0.00,Wunderground v.1.15,2013-05-22 14:31:00,
2013-05-22 07:36:00,42.9,22.5,29.73,NE,37,11.0,18.0,44,0.00,,,0.00,Wunderground v.1.15,2013-05-22 14:36:00,
2013-05-22 07:41:00,43.3,22.8,29.73,NNE,30,18.0,20.0,44,0.00,,,0.00,Wunderground v.1.15,2013-05-22 14:41:00,
2013-05-22 07:46:00,43.8,22.7,29.73,NE,35,13.0,20.0,43,0.00,,,0.00,Wunderground v.1.15,2013-05-22 14:46:00,
2013-05-22 07:51:00,44.1,23.6,29.73,NNE,30,14.0,18.0,44,0.00,,,0.00,Wunderground v.1.15,2013-05-22 14:51:00,
2013-05-22 07:56:00,43.8,23.3,29.73,NNE,30,16.0,22.0,44,0.00,,,0.00,Wunderground v.1.15,2013-05-22 14:56:00,
2013-05-22 08:01:00,43.8,23.3,29.74,NE,54,14.0,18.0,44,0.00,,,0.00,Wunderground v.1.15,2013-05-22 15:01:00,
2013-05-22 08:06:00,44.2,22.5,29.74,North,11,15.0,24.0,42,0.00,,,0.00,Wunderground v.1.15,2013-05-22 15:06:00,
2013-05-22 08:11:00,44.5,22.8,29.74,NE,41,25.0,25.0,42,0.00,,,0.00,Wunderground v.1.15,2013-05-22 15:11:00,
2013-05-22 08:16:00,44.6,22.9,29.75,NNE,32,18.0,25.0,42,0.00,,,0.00,Wunderground v.1.15,2013-05-22 15:16:00,
2013-05-22 08:21:00,44.9,23.2,29.75,NNE,30,9.0,21.0,42,0.00,,,0.00,Wunderground v.1.15,2013-05-22 15:21:00,
2013-05-22 08:26:00,45.4,23.0,29.75,NE,37,14.0,22.0,41,0.00,,,0.00,Wunderground v.1.15,2013-05-22 15:26:00,
2013-05-22 08:31:00,46.1,23.7,29.75,NNE,27,18.0,18.0,41,0.00,,,0.00,Wunderground v.1.15,2013-05-22 15:31:00,
2013-05-22 08:37:00,46.2,23.8,29.75,NNE,13,15.0,18.0,41,0.00,,,0.00,Wunderground v.1.15,2013-05-22 15:37:00,
2013-05-22 08:42:00,46.2,24.3,29.75,NNE,17,13.0,20.0,42,0.00,,,0.00,Wunderground v.1.15,2013-05-22 15:42:00,
2013-05-22 08:47:00,46.2,23.8,29.75,North,357,9.0,20.0,41,0.00,,,0.00,Wunderground v.1.15,2013-05-22 15:47:00,
2013-05-22 08:52:00,46.8,24.3,29.75,North,4,8.0,15.0,41,0.00,,,0.00,Wunderground v.1.15,2013-05-22 15:52:00,
2013-05-22 08:57:00,47.1,24.0,29.75,NNE,23,9.0,21.0,40,0.00,,,0.00,Wunderground v.1.15,2013-05-22 15:57:00,
2013-05-22 09:02:00,47.3,24.8,29.76,NNE,16,13.0,15.0,41,0.00,,,0.00,Wunderground v.1.15,2013-05-22 16:02:00,
2013-05-22 09:07:00,47.4,23.7,29.76,NNW,330,4.0,20.0,39,0.00,,,0.00,Wunderground v.1.15,2013-05-22 16:07:00,
2013-05-22 09:12:00,47.6,25.0,29.76,NNW,335,8.0,17.0,41,0.00,,,0.00,Wunderground v.1.15,2013-05-22 16:12:00,
2013-05-22 09:17:00,47.3,24.2,29.76,North,0,10.0,17.0,40,0.00,,,0.00,Wunderground v.1.15,2013-05-22 16:17:00,
2013-05-22 09:22:00,47.1,23.4,29.76,North,359,10.0,15.0,39,0.00,,,0.00,Wunderground v.1.15,2013-05-22 16:22:00,
2013-05-22 09:27:00,47.1,22.8,29.76,North,0,13.0,16.0,38,0.00,,,0.00,Wunderground v.1.15,2013-05-22 16:27:00,
2013-05-22 09:32:00,47.4,23.7,29.76,NNE,14,7.0,17.0,39,0.00,,,0.00,Wunderground v.1.15,2013-05-22 16:32:00,
2013-05-22 09:37:00,47.7,22.7,29.76,North,350,9.0,18.0,37,0.00,,,0.00,Wunderground v.1.15,2013-05-22 16:37:00,
2013-05-22 09:42:00,47.6,21.9,29.76,North,357,10.0,16.0,36,0.00,,,0.00,Wunderground v.1.15,2013-05-22 16:42:00,
2013-05-22 09:47:00,47.9,22.2,29.77,NW,323,8.0,21.0,36,0.00,,,0.00,Wunderground v.1.15,2013-05-22 16:47:00,
2013-05-22 09:52:00,48.3,22.5,29.77,NNW,332,10.0,15.0,36,0.00,,,0.00,Wunderground v.1.15,2013-05-22 16:52:00,
2013-05-22 09:57:00,48.8,22.3,29.77,NW,309,14.0,16.0,35,0.00,,,0.00,Wunderground v.1.15,2013-05-22 16:57:00,
2013-05-22 10:02:00,48.9,22.4,29.76,NE,52,14.0,14.0,35,0.00,,,0.00,Wunderground v.1.15,2013-05-22 17:02:00,
2013-05-22 10:07:00,49.1,21.2,29.76,NNW,344,11.0,20.0,33,0.00,,,0.00,Wunderground v.1.15,2013-05-22 17:07:00,
2013-05-22 10:12:00,49.2,20.6,29.76,North,0,13.0,17.0,32,0.00,,,0.00,Wunderground v.1.15,2013-05-22 17:12:00,
2013-05-22 10:17:00,49.5,21.5,29.75,North,3,11.0,17.0,33,0.00,,,0.00,Wunderground v.1.15,2013-05-22 17:17:00,
2013-05-22 10:22:00,49.8,20.3,29.75,North,349,15.0,18.0,31,0.00,,,0.00,Wunderground v.1.15,2013-05-22 17:22:00,
2013-05-22 10:27:00,50.1,19.8,29.75,North,353,13.0,18.0,30,0.00,,,0.00,Wunderground v.1.15,2013-05-22 17:27:00,
2013-05-22 10:32:00,50.4,20.1,29.76,North,0,15.0,15.0,30,0.00,,,0.00,Wunderground v.1.15,2013-05-22 17:32:00,
2013-05-22 10:37:00,50.8,20.4,29.76,North,0,16.0,17.0,30,0.00,,,0.00,Wunderground v.1.15,2013-05-22 17:37:00,
2013-05-22 10:42:00,51.1,19.9,29.76,NNW,344,9.0,16.0,29,0.00,,,0.00,Wunderground v.1.15,2013-05-22 17:42:00,
2013-05-22 10:47:00,51.4,21.0,29.74,NW,323,4.0,17.0,30,0.00,,,0.00,Wunderground v.1.15,2013-05-22 17:47:00,
2013-05-22 10:52:00,52.3,20.9,29.74,North,6,13.0,17.0,29,0.00,,,0.00,Wunderground v.1.15,2013-05-22 17:52:00,
2013-05-22 10:57:00,52.8,23.0,29.74,NNW,337,15.0,18.0,31,0.00,,,0.00,Wunderground v.1.15,2013-05-22 17:57:00,
2013-05-22 11:02:00,52.9,21.5,29.74,NW,313,8.0,16.0,29,0.00,,,0.00,Wunderground v.1.15,2013-05-22 18:02:00,
2013-05-22 11:07:00,53.2,20.0,29.74,NNW,336,11.0,18.0,27,0.00,,,0.00,Wunderground v.1.15,2013-05-22 18:07:00,
2013-05-22 11:12:00,53.6,21.2,29.74,North,0,4.0,16.0,28,0.00,,,0.00,Wunderground v.1.15,2013-05-22 18:12:00,
2013-05-22 11:17:00,54.1,19.9,29.74,NNE,21,6.0,16.0,26,0.00,,,0.00,Wunderground v.1.15,2013-05-22 18:17:00,
2013-05-22 11:22:00,54.4,22.8,29.74,WNW,287,13.0,14.0,29,0.00,,,0.00,Wunderground v.1.15,2013-05-22 18:22:00,
2013-05-22 11:27:00,54.4,22.8,29.74,WNW,292,9.0,14.0,29,0.00,,,0.00,Wunderground v.1.15,2013-05-22 18:27:00,
2013-05-22 11:33:00,55.0,21.6,29.74,NW,322,6.0,15.0,27,0.00,,,0.00,Wunderground v.1.15,2013-05-22 18:33:00,
2013-05-22 11:38:00,55.4,20.1,29.74,North,353,6.0,15.0,25,0.00,,,0.00,Wunderground v.1.15,2013-05-22 18:38:00,
2013-05-22 11:43:00,55.7,21.3,29.74,NE,55,10.0,15.0,26,0.00,,,0.00,Wunderground v.1.15,2013-05-22 18:43:00,
2013-05-22 11:48:00,55.6,21.2,29.73,North,349,11.0,15.0,26,0.00,,,0.00,Wunderground v.1.15,2013-05-22 18:48:00,
2013-05-22 11:53:00,55.6,21.2,29.73,NNW,344,0.0,15.0,26,0.00,,,0.00,Wunderground v.1.15,2013-05-22 18:53:00,
2013-05-22 11:58:00,55.9,22.4,29.73,North,0,6.0,15.0,27,0.00,,,0.00,Wunderground v.1.15,2013-05-22 18:58:00,
2013-05-22 12:04:00,56.0,20.6,29.73,NW,326,4.0,15.0,25,0.00,,,0.00,Wunderground v.1.15,2013-05-22 19:04:00,
2013-05-22 12:09:00,55.9,18.6,29.73,North,7,8.0,17.0,23,0.00,,,0.00,Wunderground v.1.15,2013-05-22 19:09:00,
2013-05-22 12:14:00,55.9,20.5,29.73,NNW,339,11.0,14.0,25,0.00,,,0.00,Wunderground v.1.15,2013-05-22 19:14:00,
2013-05-22 12:19:00,56.0,18.7,29.73,North,0,7.0,14.0,23,0.00,,,0.00,Wunderground v.1.15,2013-05-22 19:19:00,
2013-05-22 12:24:00,56.2,20.8,29.73,North,357,10.0,14.0,25,0.00,,,0.00,Wunderground v.1.15,2013-05-22 19:24:00,
2013-05-22 12:29:00,56.2,19.8,29.73,NNE,17,2.0,15.0,24,0.00,,,0.00,Wunderground v.1.15,2013-05-22 19:29:00,
2013-05-22 12:34:00,56.2,19.8,29.73,NNW,346,8.0,16.0,24,0.00,,,0.00,Wunderground v.1.15,2013-05-22 19:34:00,
2013-05-22 12:39:00,56.5,18.1,29.73,NE,34,6.0,16.0,22,0.00,,,0.00,Wunderground v.1.15,2013-05-22 19:39:00,
2013-05-22 12:44:00,56.6,18.1,29.73,North,1,9.0,15.0,22,0.00,,,0.00,Wunderground v.1.15,2013-05-22 19:44:00,
2013-05-22 12:49:00,56.7,21.2,29.72,North,0,9.0,15.0,25,0.00,,,0.00,Wunderground v.1.15,2013-05-22 19:49:00,
2013-05-22 12:54:00,57.2,19.7,29.72,North,356,8.0,13.0,23,0.00,,,0.00,Wunderground v.1.15,2013-05-22 19:54:00,
2013-05-22 12:59:00,57.3,19.8,29.71,North,10,16.0,16.0,23,0.00,,,0.00,Wunderground v.1.15,2013-05-22 19:59:00,
2013-05-22 13:04:00,57.8,21.2,29.71,NNE,20,10.0,14.0,24,0.00,,,0.00,Wunderground v.1.15,2013-05-22 20:04:00,
2013-05-22 13:09:00,58.3,20.6,29.71,NE,48,4.0,16.0,23,0.00,,,0.00,Wunderground v.1.15,2013-05-22 20:09:00,
2013-05-22 13:14:00,58.0,17.1,29.72,North,11,8.0,14.0,20,0.00,,,0.00,Wunderground v.1.15,2013-05-22 20:14:00,
2013-05-22 13:19:00,58.1,20.4,29.72,NNE,24,9.0,15.0,23,0.00,,,0.00,Wunderground v.1.15,2013-05-22 20:19:00,
2013-05-22 13:24:00,58.3,20.6,29.72,North,0,11.0,14.0,23,0.00,,,0.00,Wunderground v.1.15,2013-05-22 20:24:00,
2013-05-22 13:29:00,58.4,19.7,29.71,NNE,20,11.0,15.0,22,0.00,,,0.00,Wunderground v.1.15,2013-05-22 20:29:00,
2013-05-22 13:34:00,58.7,18.8,29.71,North,354,14.0,17.0,21,0.00,,,0.00,Wunderground v.1.15,2013-05-22 20:34:00,
2013-05-22 13:39:00,58.9,17.8,29.71,NNW,339,1.0,17.0,20,0.00,,,0.00,Wunderground v.1.15,2013-05-22 20:39:00,
2013-05-22 13:45:00,59.2,18.1,29.69,North,3,6.0,15.0,20,0.00,,,0.00,Wunderground v.1.15,2013-05-22 20:45:00,
2013-05-22 13:50:00,59.2,18.1,29.69,NW,312,8.0,8.0,20,0.00,,,0.00,Wunderground v.1.15,2013-05-22 20:50:00,
2013-05-22 13:55:00,59.3,19.3,29.69,NNE,18,10.0,16.0,21,0.00,,,0.00,Wunderground v.1.15,2013-05-22 20:55:00,
2013-05-22 14:00:00,60.2,18.9,29.69,North,0,10.0,10.0,20,0.00,,,0.00,Wunderground v.1.15,2013-05-22 21:00:00,
2013-05-22 14:05:00,60.2,17.7,29.69,NNE,16,4.0,10.0,19,0.00,,,0.00,Wunderground v.1.15,2013-05-22 21:05:00,
2013-05-22 14:10:00,60.2,17.7,29.69,NE,42,4.0,7.0,19,0.00,,,0.00,Wunderground v.1.15,2013-05-22 21:10:00,
2013-05-22 14:15:00,60.2,18.9,29.70,NNE,20,14.0,17.0,20,0.00,,,0.00,Wunderground v.1.15,2013-05-22 21:15:00,
2013-05-22 14:20:00,60.7,19.3,29.70,NW,325,1.0,9.0,20,0.00,,,0.00,Wunderground v.1.15,2013-05-22 21:20:00,
2013-05-22 14:25:00,61.2,18.6,29.70,NNW,343,9.0,10.0,19,0.00,,,0.00,Wunderground v.1.15,2013-05-22 21:25:00,
2013-05-22 14:30:00,61.8,19.0,29.69,WNW,282,6.0,7.0,19,0.00,,,0.00,Wunderground v.1.15,2013-05-22 21:30:00,
2013-05-22 14:35:00,61.8,20.3,29.69,North,356,4.0,11.0,20,0.00,,,0.00,Wunderground v.1.15,2013-05-22 21:35:00,
2013-05-22 14:40:00,62.1,19.3,29.69,WNW,294,2.0,13.0,19,0.00,,,0.00,Wunderground v.1.15,2013-05-22 21:40:00,
2013-05-22 14:45:00,62.3,21.8,29.68,NW,318,9.0,13.0,21,0.00,,,0.00,Wunderground v.1.15,2013-05-22 21:45:00,
2013-05-22 14:50:00,62.3,20.7,29.68,NNW,344,0.0,8.0,20,0.00,,,0.00,Wunderground v.1.15,2013-05-22 21:50:00,
2013-05-22 14:55:00,62.1,18.0,29.68,NNW,336,8.0,15.0,18,0.00,,,0.00,Wunderground v.1.15,2013-05-22 21:55:00,
2013-05-22 15:00:00,62.4,19.5,29.68,North,0,15.0,15.0,19,0.00,,,0.00,Wunderground v.1.15,2013-05-22 22:00:00,
2013-05-22 15:05:00,61.8,17.8,29.68,NNE,32,8.0,15.0,18,0.00,,,0.00,Wunderground v.1.15,2013-05-22 22:05:00,
2013-05-22 15:10:00,61.3,16.1,29.68,NE,37,0.0,9.0,17,0.00,,,0.00,Wunderground v.1.15,2013-05-22 22:10:00,
2013-05-22 15:15:00,60.7,15.6,29.68,NNE,25,1.0,18.0,17,0.00,,,0.00,Wunderground v.1.15,2013-05-22 22:15:00,
2013-05-22 15:20:00,61.6,18.9,29.68,North,0,2.0,7.0,19,0.00,,,0.00,Wunderground v.1.15,2013-05-22 22:20:00,
2013-05-22 15:25:00,62.3,19.5,29.68,WNW,289,8.0,14.0,19,0.00,,,0.00,Wunderground v.1.15,2013-05-22 22:25:00,
2013-05-22 15:30:00,62.1,16.7,29.67,North,11,2.0,10.0,17,0.00,,,0.00,Wunderground v.1.15,2013-05-22 22:30:00,
2013-05-22 15:35:00,62.0,18.0,29.67,NNE,20,9.0,13.0,18,0.00,,,0.00,Wunderground v.1.15,2013-05-22 22:35:00,
2013-05-22 15:40:00,62.1,18.0,29.67,NNW,344,4.0,6.0,18,0.00,,,0.00,Wunderground v.1.15,2013-05-22 22:40:00,
2013-05-22 15:45:00,62.6,18.4,29.67,NNE,25,14.0,14.0,18,0.00,,,0.00,Wunderground v.1.15,2013-05-22 22:45:00,
2013-05-22 15:50:00,61.8,15.1,29.67,NNE,28,8.0,11.0,16,0.00,,,0.00,Wunderground v.1.15,2013-05-22 22:50:00,
2013-05-22 15:55:00,61.6,16.3,29.67,NE,34,13.0,13.0,17,0.00,,,0.00,Wunderground v.1.15,2013-05-22 22:55:00,
2013-05-22 16:01:00,62.0,18.0,29.67,North,6,8.0,13.0,18,0.00,,,0.00,Wunderground v.1.15,2013-05-22 23:01:00,
2013-05-22 16:06:00,62.9,18.7,29.67,NNE,13,9.0,17.0,18,0.00,,,0.00,Wunderground v.1.15,2013-05-22 23:06:00,
2013-05-22 16:11:00,63.4,16.4,29.67,WNW,288,10.0,20.0,16,0.00,,,0.00,Wunderground v.1.15,2013-05-22 23:11:00,
2013-05-22 16:16:00,62.9,17.4,29.66,NW,312,13.0,20.0,17,0.00,,,0.00,Wunderground v.1.15,2013-05-22 23:16:00,
2013-05-22 16:21:00,63.5,17.8,29.66,NW,311,6.0,11.0,17,0.00,,,0.00,Wunderground v.1.15,2013-05-22 23:21:00,
2013-05-22 16:26:00,63.9,19.5,29.66,WSW,257,10.0,21.0,18,0.00,,,0.00,Wunderground v.1.15,2013-05-22 23:26:00,
2013-05-22 16:31:00,63.2,17.6,29.66,West,274,11.0,13.0,17,0.00,,,0.00,Wunderground v.1.15,2013-05-22 23:31:00,
2013-05-22 16:36:00,63.4,17.8,29.66,NW,315,4.0,16.0,17,0.00,,,0.00,Wunderground v.1.15,2013-05-22 23:36:00,
2013-05-22 16:41:00,63.7,18.0,29.66,West,270,7.0,13.0,17,0.00,,,0.00,Wunderground v.1.15,2013-05-22 23:41:00,
2013-05-22 16:46:00,64.2,19.8,29.66,WSW,250,6.0,18.0,18,0.00,,,0.00,Wunderground v.1.15,2013-05-22 23:46:00,
2013-05-22 16:51:00,63.9,18.2,29.66,NW,319,11.0,17.0,17,0.00,,,0.00,Wunderground v.1.15,2013-05-22 23:51:00,
2013-05-22 16:56:00,63.7,18.0,29.66,WNW,284,13.0,17.0,17,0.00,,,0.00,Wunderground v.1.15,2013-05-22 23:56:00,
2013-05-22 17:01:00,63.9,18.2,29.66,West,267,10.0,10.0,17,0.00,,,0.00,Wunderground v.1.15,2013-05-23 00:01:00,
2013-05-22 17:06:00,64.3,18.5,29.66,West,263,10.0,16.0,17,0.00,,,0.00,Wunderground v.1.15,2013-05-23 00:06:00,
2013-05-22 17:11:00,64.0,19.6,29.66,WSW,247,15.0,16.0,18,0.00,,,0.00,Wunderground v.1.15,2013-05-23 00:11:00,
2013-05-22 17:16:00,63.9,18.2,29.67,West,267,2.0,21.0,17,0.00,,,0.00,Wunderground v.1.15,2013-05-23 00:16:00,
2013-05-22 17:21:00,63.2,17.6,29.67,West,271,2.0,14.0,17,0.00,,,0.00,Wunderground v.1.15,2013-05-23 00:21:00,
2013-05-22 17:26:00,63.1,18.9,29.67,SW,216,18.0,20.0,18,0.00,,,0.00,Wunderground v.1.15,2013-05-23 00:26:00,
2013-05-22 17:31:00,62.3,18.2,29.68,West,274,9.0,20.0,18,0.00,,,0.00,Wunderground v.1.15,2013-05-23 00:31:00,
2013-05-22 17:36:00,62.0,18.0,29.68,WSW,244,8.0,20.0,18,0.00,,,0.00,Wunderground v.1.15,2013-05-23 00:36:00,
2013-05-22 17:41:00,61.6,17.6,29.68,WNW,299,18.0,18.0,18,0.00,,,0.00,Wunderground v.1.15,2013-05-23 00:41:00,
2013-05-22 17:46:00,61.2,16.0,29.69,West,272,9.0,21.0,17,0.00,,,0.00,Wunderground v.1.15,2013-05-23 00:46:00,
2013-05-22 17:51:00,61.5,17.5,29.69,West,265,17.0,17.0,18,0.00,,,0.00,Wunderground v.1.15,2013-05-23 00:51:00,
2013-05-22 17:56:00,61.6,16.3,29.69,SSW,196,13.0,17.0,17,0.00,,,0.00,Wunderground v.1.15,2013-05-23 00:56:00,
2013-05-22 18:01:00,61.2,14.6,29.70,WNW,291,11.0,15.0,16,0.00,,,0.00,Wunderground v.1.15,2013-05-23 01:01:00,
2013-05-22 18:06:00,61.2,16.0,29.70,SW,234,16.0,17.0,17,0.00,,,0.00,Wunderground v.1.15,2013-05-23 01:06:00,
2013-05-22 18:11:00,60.9,15.7,29.70,West,274,11.0,16.0,17,0.00,,,0.00,Wunderground v.1.15,2013-05-23 01:11:00,
2013-05-22 18:16:00,60.9,14.3,29.72,WSW,257,7.0,16.0,16,0.00,,,0.00,Wunderground v.1.15,2013-05-23 01:16:00,
2013-05-22 18:21:00,60.7,14.2,29.72,WSW,247,8.0,14.0,16,0.00,,,0.00,Wunderground v.1.15,2013-05-23 01:21:00,
2013-05-22 18:26:00,60.7,12.7,29.72,West,272,8.0,14.0,15,0.00,,,0.00,Wunderground v.1.15,2013-05-23 01:26:00,
2013-05-22 18:31:00,60.7,14.2,29.72,West,265,9.0,9.0,16,0.00,,,0.00,Wunderground v.1.15,2013-05-23 01:31:00,
2013-05-22 18:36:00,60.9,15.7,29.72,West,270,1.0,10.0,17,0.00,,,0.00,Wunderground v.1.15,2013-05-23 01:36:00,
2013-05-22 18:41:00,60.5,15.4,29.72,NW,306,1.0,6.0,17,0.00,,,0.00,Wunderground v.1.15,2013-05-23 01:41:00,
2013-05-22 18:46:00,60.7,14.2,29.72,WNW,287,8.0,9.0,16,0.00,,,0.00,Wunderground v.1.15,2013-05-23 01:46:00,
2013-05-22 18:51:00,60.5,12.5,29.72,NW,319,4.0,7.0,15,0.00,,,0.00,Wunderground v.1.15,2013-05-23 01:51:00,
2013-05-22 18:56:00,60.2,12.3,29.72,WNW,288,8.0,8.0,15,0.00,,,0.00,Wunderground v.1.15,2013-05-23 01:56:00,
2013-05-22 19:01:00,60.1,13.7,29.73,NW,313,1.0,7.0,16,0.00,,,0.00,Wunderground v.1.15,2013-05-23 02:01:00,
2013-05-22 19:06:00,60.1,13.7,29.73,WNW,282,6.0,8.0,16,0.00,,,0.00,Wunderground v.1.15,2013-05-23 02:06:00,
2013-05-22 19:11:00,59.8,13.4,29.73,West,263,7.0,7.0,16,0.00,,,0.00,Wunderground v.1.15,2013-05-23 02:11:00,
2013-05-22 19:16:00,59.8,14.8,29.74,WNW,282,1.0,7.0,17,0.00,,,0.00,Wunderground v.1.15,2013-05-23 02:16:00,
2013-05-22 19:21:00,59.8,16.1,29.74,WSW,240,4.0,7.0,18,0.00,,,0.00,Wunderground v.1.15,2013-05-23 02:21:00,
2013-05-22 19:26:00,59.8,14.8,29.74,WSW,258,2.0,7.0,17,0.00,,,0.00,Wunderground v.1.15,2013-05-23 02:26:00,
2013-05-22 19:31:00,59.5,15.9,29.74,SW,233,6.0,9.0,18,0.00,,,0.00,Wunderground v.1.15,2013-05-23 02:31:00,
2013-05-22 19:36:00,59.0,15.5,29.74,WNW,296,8.0,9.0,18,0.00,,,0.00,Wunderground v.1.15,2013-05-23 02:36:00,
2013-05-22 19:41:00,58.3,16.2,29.74,NW,316,6.0,9.0,19,0.00,,,0.00,Wunderground v.1.15,2013-05-23 02:41:00,
2013-05-22 19:46:00,57.3,16.5,29.75,WSW,256,0.0,9.0,20,0.00,,,0.00,Wunderground v.1.15,2013-05-23 02:46:00,
2013-05-22 19:51:00,56.0,14.3,29.75,WNW,285,2.0,8.0,19,0.00,,,0.00,Wunderground v.1.15,2013-05-23 02:51:00,
2013-05-22 19:56:00,55.1,13.5,29.75,West,270,1.0,8.0,19,0.00,,,0.00,Wunderground v.1.15,2013-05-23 02:56:00,
2013-05-22 20:01:00,54.4,14.1,29.78,WNW,284,4.0,8.0,20,0.00,,,0.00,Wunderground v.1.15,2013-05-23 03:01:00,
2013-05-22 20:06:00,53.8,13.6,29.78,WNW,302,2.0,8.0,20,0.00,,,0.00,Wunderground v.1.15,2013-05-23 03:06:00,
2013-05-22 20:11:00,53.2,14.2,29.78,WNW,301,1.0,6.0,21,0.00,,,0.00,Wunderground v.1.15,2013-05-23 03:11:00,
2013-05-22 20:16:00,52.8,14.9,29.78,NW,311,4.0,6.0,22,0.00,,,0.00,Wunderground v.1.15,2013-05-23 03:16:00,
2013-05-22 20:21:00,52.2,15.5,29.78,NNW,329,2.0,4.0,23,0.00,,,0.00,Wunderground v.1.15,2013-05-23 03:21:00,
2013-05-22 20:26:00,51.6,17.8,29.78,WNW,291,6.0,8.0,26,0.00,,,0.00,Wunderground v.1.15,2013-05-23 03:26:00,
2013-05-22 20:32:00,51.1,18.2,29.79,NW,315,0.0,2.0,27,0.00,,,0.00,Wunderground v.1.15,2013-05-23 03:32:00,
2013-05-22 20:37:00,50.8,18.8,29.79,NNW,335,1.0,2.0,28,0.00,,,0.00,Wunderground v.1.15,2013-05-23 03:37:00,
2013-05-22 20:42:00,50.1,19.0,29.79,NNW,335,0.0,1.0,29,0.00,,,0.00,Wunderground v.1.15,2013-05-23 03:42:00,
2013-05-22 20:47:00,49.6,20.9,29.80,North,0,0.0,1.0,32,0.00,,,0.00,Wunderground v.1.15,2013-05-23 03:47:00,
2013-05-22 20:52:00,49.1,21.9,29.80,North,353,0.0,1.0,34,0.00,,,0.00,Wunderground v.1.15,2013-05-23 03:52:00,
2013-05-22 20:57:00,48.6,20.8,29.80,North,0,1.0,2.0,33,0.00,,,0.00,Wunderground v.1.15,2013-05-23 03:57:00,
2013-05-22 21:01:00,48.2,20.4,29.80,North,0,0.0,0.0,33,0.00,,,0.00,Wunderground v.1.15,2013-05-23 04:01:00,
2013-05-22 21:06:00,47.1,23.4,29.80,NNE,13,0.0,2.0,39,0.00,,,0.00,Wunderground v.1.15,2013-05-23 04:06:00,
2013-05-22 21:11:00,46.5,22.2,29.80,ESE,106,4.0,4.0,38,0.00,,,0.00,Wunderground v.1.15,2013-05-23 04:11:00,
2013-05-22 21:16:00,46.1,20.6,29.82,East,90,6.0,7.0,36,0.00,,,0.00,Wunderground v.1.15,2013-05-23 04:16:00,
2013-05-22 21:22:00,46.0,19.8,29.82,ENE,72,0.0,4.0,35,0.00,,,0.00,Wunderground v.1.15,2013-05-23 04:22:00,
2013-05-22 21:27:00,46.2,19.3,29.82,ENE,58,0.0,4.0,34,0.00,,,0.00,Wunderground v.1.15,2013-05-23 04:27:00,
2013-05-22 21:32:00,46.4,19.5,29.82,ENE,58,2.0,2.0,34,0.00,,,0.00,Wunderground v.1.15,2013-05-23 04:32:00,
2013-05-22 21:37:00,46.4,20.2,29.82,NNE,18,4.0,7.0,35,0.00,,,0.00,Wunderground v.1.15,2013-05-23 04:37:00,
2013-05-22 21:42:00,46.1,20.6,29.82,NE,45,0.0,4.0,36,0.00,,,0.00,Wunderground v.1.15,2013-05-23 04:42:00,
2013-05-22 21:47:00,45.4,19.3,29.82,ENE,61,1.0,4.0,35,0.00,,,0.00,Wunderground v.1.15,2013-05-23 04:47:00,
2013-05-22 21:52:00,44.6,18.6,29.82,ENE,66,0.0,2.0,35,0.00,,,0.00,Wunderground v.1.15,2013-05-23 04:52:00,
2013-05-22 21:57:00,44.2,19.5,29.82,ENE,69,2.0,4.0,37,0.00,,,0.00,Wunderground v.1.15,2013-05-23 04:57:00,
2013-05-22 22:02:00,44.1,20.1,29.83,East,95,0.0,4.0,38,0.00,,,0.00,Wunderground v.1.15,2013-05-23 05:02:00,
2013-05-22 22:07:00,43.8,19.2,29.83,ENE,64,0.0,4.0,37,0.00,,,0.00,Wunderground v.1.15,2013-05-23 05:07:00,
2013-05-22 22:12:00,43.5,18.9,29.83,ENE,65,0.0,1.0,37,0.00,,,0.00,Wunderground v.1.15,2013-05-23 05:12:00,
2013-05-22 22:17:00,43.3,18.7,29.81,ENE,65,0.0,1.0,37,0.00,,,0.00,Wunderground v.1.15,2013-05-23 05:17:00,
2013-05-22 22:22:00,43.1,18.6,29.81,ENE,65,0.0,0.0,37,0.00,,,0.00,Wunderground v.1.15,2013-05-23 05:22:00,
2013-05-22 22:27:00,42.9,19.0,29.81,ENE,65,0.0,1.0,38,0.00,,,0.00,Wunderground v.1.15,2013-05-23 05:27:00,
2013-05-22 22:32:00,42.6,18.7,29.81,ENE,65,0.0,1.0,38,0.00,,,0.00,Wunderground v.1.15,2013-05-23 05:32:00,
2013-05-22 22:37:00,42.3,17.8,29.81,ENE,65,0.0,1.0,37,0.00,,,0.00,Wunderground v.1.15,2013-05-23 05:37:00,
2013-05-22 22:42:00,42.1,17.7,29.81,ENE,65,0.0,0.0,37,0.00,,,0.00,Wunderground v.1.15,2013-05-23 05:42:00,
2013-05-22 22:47:00,41.8,18.0,29.82,ENE,65,0.0,0.0,38,0.00,,,0.00,Wunderground v.1.15,2013-05-23 05:47:00,
2013-05-22 22:52:00,41.5,18.9,29.82,SE,127,2.0,4.0,40,0.00,,,0.00,Wunderground v.1.15,2013-05-23 05:52:00,
2013-05-22 22:57:00,41.2,17.5,29.82,ESE,119,2.0,6.0,38,0.00,,,0.00,Wunderground v.1.15,2013-05-23 05:57:00,
2013-05-22 23:02:00,41.2,16.9,29.82,ESE,117,0.0,1.0,37,0.00,,,0.00,Wunderground v.1.15,2013-05-23 06:02:00,
2013-05-22 23:07:00,41.1,16.8,29.82,ESE,117,0.0,1.0,37,0.00,,,0.00,Wunderground v.1.15,2013-05-23 06:07:00,
2013-05-22 23:12:00,40.8,16.5,29.82,ESE,117,0.0,0.0,37,0.00,,,0.00,Wunderground v.1.15,2013-05-23 06:12:00,
2013-05-22 23:17:00,40.6,16.3,29.81,ESE,117,0.0,0.0,37,0.00,,,0.00,Wunderground v.1.15,2013-05-23 06:17:00,
2013-05-22 23:22:00,40.6,15.7,29.81,ESE,117,0.0,0.0,36,0.00,,,0.00,Wunderground v.1.15,2013-05-23 06:22:00,
2013-05-22 23:27:00,40.5,15.0,29.81,ESE,117,0.0,1.0,35,0.00,,,0.00,Wunderground v.1.15,2013-05-23 06:27:00,
2013-05-22 23:32:00,40.1,16.5,29.81,ESE,119,0.0,1.0,38,0.00,,,0.00,Wunderground v.1.15,2013-05-23 06:32:00,
2013-05-22 23:37:00,39.8,16.2,29.81,ESE,117,0.0,4.0,38,0.00,,,0.00,Wunderground v.1.15,2013-05-23 06:37:00,
2013-05-22 23:42:00,39.5,16.0,29.81,ESE,117,0.0,0.0,38,0.00,,,0.00,Wunderground v.1.15,2013-05-23 06:42:00,
2013-05-22 23:47:00,39.1,16.2,29.82,ESE,117,0.0,0.0,39,0.00,,,0.00,Wunderground v.1.15,2013-05-23 06:47:00,
2013-05-22 23:52:00,38.8,17.1,29.82,ESE,117,0.0,0.0,41,0.00,,,0.00,Wunderground v.1.15,2013-05-23 06:52:00,
2013-05-22 23:57:00,38.3,17.7,29.82,ESE,117,0.0,1.0,43,0.00,,,0.00,Wunderground v.1.15,2013-05-23 06:57:00,